Time,TemperatureF,DewpointF,PressureIn,WindDirection,WindDirectionDegrees,WindSpeedMPH,WindSpeedGustMPH,Humidity,HourlyPrecipIn,Conditions,Clouds,dailyrainin,SoftwareType,DateUTC
2013-02-07 00:11:00,27.0,21.0,30.35,NW,321,0.0,-999.0,78,-99.99,,,0.00,weatherlink.com 1.10,2013-02-07 05:11:00,
2013-02-07 00:26:00,27.2,21.0,30.35,NW,321,0.0,-999.0,78,-99.99,,,0.00,weatherlink.com 1.10,2013-02-07 05:26:00,
2013-02-07 00:41:00,26.7,21.0,30.37,NW,321,0.0,-999.0,80,-99.99,,,0.00,weatherlink.com 1.10,2013-02-07 05:41:00,
2013-02-07 00:56:00,26.1,21.0,30.38,NW,321,0.0,-999.0,81,-99.99,,,0.00,weatherlink.com 1.10,2013-02-07 05:56:00,
2013-02-07 01:11:00,26.1,21.0,30.38,NW,321,0.0,-999.0,82,-99.99,,,0.00,weatherlink.com 1.10,2013-02-07 06:11:00,
2013-02-07 01:26:00,25.7,21.0,30.38,NW,321,0.0,-999.0,83,-99.99,,,0.00,weatherlink.com 1.10,2013-02-07 06:26:00,
2013-02-07 01:41:00,25.6,21.0,30.39,NW,321,0.0,-999.0,84,-99.99,,,0.00,weatherlink.com 1.10,2013-02-07 06:41:00,
2013-02-07 01:56:00,25.1,21.0,30.40,NW,321,0.0,-999.0,84,-99.99,,,0.00,weatherlink.com 1.10,2013-02-07 06:56:00,
2013-02-07 02:11:00,25.1,21.0,30.41,NW,321,0.0,-999.0,85,-99.99,,,0.00,weatherlink.com 1.10,2013-02-07 07:11:00,
2013-02-07 02:41:00,25.3,21.0,30.41,NW,321,0.0,-999.0,85,-99.99,,,0.00,weatherlink.com 1.10,2013-02-07 07:41:00,
2013-02-07 02:56:00,25.1,21.0,30.40,NW,321,0.0,-999.0,84,-99.99,,,0.00,weatherlink.com 1.10,2013-02-07 07:56:00,
2013-02-07 03:11:00,25.0,21.0,30.41,NW,321,0.0,-999.0,85,-99.99,,,0.00,weatherlink.com 1.10,2013-02-07 08:11:00,
2013-02-07 03:26:00,25.3,21.0,30.40,NW,321,0.0,-999.0,85,-99.99,,,0.00,weatherlink.com 1.10,2013-02-07 08:26:00,
2013-02-07 03:41:00,25.4,21.0,30.39,NW,321,0.0,-999.0,84,-99.99,,,0.00,weatherlink.com 1.10,2013-02-07 08:41:00,
2013-02-07 03:56:00,25.8,22.0,30.38,NW,321,0.0,-999.0,84,-99.99,,,0.00,weatherlink.com 1.10,2013-02-07 08:56:00,
2013-02-07 04:11:00,25.8,21.0,30.38,NW,321,0.0,-999.0,83,-99.99,,,0.00,weatherlink.com 1.10,2013-02-07 09:11:00,
2013-02-07 04:26:00,25.7,22.0,30.38,NW,321,0.0,-999.0,84,-99.99,,,0.00,weatherlink.com 1.10,2013-02-07 09:26:00,
2013-02-07 04:41:00,25.8,22.0,30.38,NW,321,0.0,-999.0,84,-99.99,,,0.00,weatherlink.com 1.10,2013-02-07 09:41:00,
2013-02-07 04:56:00,25.7,22.0,30.39,NW,321,0.0,-999.0,85,-99.99,,,0.00,weatherlink.com 1.10,2013-02-07 09:56:00,
2013-02-07 05:11:00,25.6,22.0,30.40,NW,321,0.0,-999.0,86,-99.99,,,0.00,weatherlink.com 1.10,2013-02-07 10:11:00,
2013-02-07 05:26:00,25.3,22.0,30.40,NW,321,0.0,-999.0,86,-99.99,,,0.00,weatherlink.com 1.10,2013-02-07 10:26:00,
2013-02-07 05:41:00,25.3,22.0,30.40,NW,321,0.0,-999.0,86,-99.99,,,0.00,weatherlink.com 1.10,2013-02-07 10:41:00,
2013-02-07 05:56:00,25.1,22.0,30.41,NW,321,0.0,-999.0,86,-99.99,,,0.00,weatherlink.com 1.10,2013-02-07 10:56:00,
2013-02-07 06:11:00,25.0,21.0,30.41,NW,321,0.0,-999.0,86,-99.99,,,0.00,weatherlink.com 1.10,2013-02-07 11:11:00,
2013-02-07 06:26:00,24.8,21.0,30.42,NW,321,0.0,-999.0,86,-99.99,,,0.00,weatherlink.com 1.10,2013-02-07 11:26:00,
2013-02-07 06:41:00,25.0,22.0,30.43,NW,321,0.0,-999.0,87,-99.99,,,0.00,weatherlink.com 1.10,2013-02-07 11:41:00,
2013-02-07 06:56:00,25.3,22.0,30.44,NW,321,0.0,-999.0,87,-99.99,,,0.00,weatherlink.com 1.10,2013-02-07 11:56:00,
2013-02-07 07:11:00,26.0,22.0,30.44,NW,321,0.0,-999.0,86,-99.99,,,0.00,weatherlink.com 1.10,2013-02-07 12:11:00,
2013-02-07 07:26:00,26.4,23.0,30.44,NW,321,0.0,-999.0,86,-99.99,,,0.00,weatherlink.com 1.10,2013-02-07 12:26:00,
2013-02-07 07:41:00,26.9,23.0,30.44,NW,321,0.0,-999.0,86,-99.99,,,0.00,weatherlink.com 1.10,2013-02-07 12:41:00,
2013-02-07 07:56:00,27.8,24.0,30.44,NW,321,0.0,-999.0,87,-99.99,,,0.00,weatherlink.com 1.10,2013-02-07 12:56:00,
2013-02-07 08:11:00,28.8,25.0,30.44,NW,321,0.0,-999.0,87,-99.99,,,0.00,weatherlink.com 1.10,2013-02-07 13:11:00,
2013-02-07 08:26:00,29.7,26.0,30.45,NW,321,0.0,-999.0,85,-99.99,,,0.00,weatherlink.com 1.10,2013-02-07 13:26:00,
2013-02-07 08:41:00,30.6,26.0,30.45,NW,321,0.0,-999.0,84,-99.99,,,0.00,weatherlink.com 1.10,2013-02-07 13:41:00,
2013-02-07 08:56:00,31.8,26.0,30.46,NW,321,0.0,-999.0,80,-99.99,,,0.00,weatherlink.com 1.10,2013-02-07 13:56:00,
2013-02-07 09:11:00,32.2,26.0,30.45,NE,43,0.0,-999.0,77,-99.99,,,0.00,weatherlink.com 1.10,2013-02-07 14:11:00,
2013-02-07 09:26:00,32.9,25.0,30.46,ENE,65,0.0,-999.0,74,-99.99,,,0.00,weatherlink.com 1.10,2013-02-07 14:26:00,
2013-02-07 09:41:00,33.1,24.0,30.47,ENE,65,0.0,-999.0,70,-99.99,,,0.00,weatherlink.com 1.10,2013-02-07 14:41:00,
2013-02-07 09:56:00,33.8,25.0,30.46,ENE,65,0.0,-999.0,70,-99.99,,,0.00,weatherlink.com 1.10,2013-02-07 14:56:00,
2013-02-07 10:11:00,34.1,25.0,30.46,ENE,65,0.0,-999.0,68,-99.99,,,0.00,weatherlink.com 1.10,2013-02-07 15:11:00,
2013-02-07 10:26:00,34.3,25.0,30.45,SSE,153,3.0,-999.0,68,-99.99,,,0.00,weatherlink.com 1.10,2013-02-07 15:26:00,
2013-02-07 10:41:00,34.6,25.0,30.46,SSE,152,0.0,-999.0,67,-99.99,,,0.00,weatherlink.com 1.10,2013-02-07 15:41:00,
2013-02-07 10:56:00,34.9,25.0,30.45,SSE,152,0.0,-999.0,67,-99.99,,,0.00,weatherlink.com 1.10,2013-02-07 15:56:00,
2013-02-07 11:11:00,35.5,25.0,30.45,SSE,152,3.0,-999.0,65,-99.99,,,0.00,weatherlink.com 1.10,2013-02-07 16:11:00,
2013-02-07 11:26:00,35.6,24.0,30.45,SE,141,0.0,-999.0,64,-99.99,,,0.00,weatherlink.com 1.10,2013-02-07 16:26:00,
2013-02-07 11:41:00,35.5,24.0,30.44,SE,131,1.0,-999.0,64,-99.99,,,0.00,weatherlink.com 1.10,2013-02-07 16:41:00,
2013-02-07 11:56:00,36.2,25.0,30.43,SSE,158,0.0,-999.0,65,-99.99,,,0.00,weatherlink.com 1.10,2013-02-07 16:56:00,
2013-02-07 12:11:00,36.5,26.0,30.41,SE,133,0.0,-999.0,66,-99.99,,,0.00,weatherlink.com 1.10,2013-02-07 17:11:00,
2013-02-07 12:26:00,36.5,26.0,30.41,ESE,113,3.0,-999.0,66,-99.99,,,0.00,weatherlink.com 1.10,2013-02-07 17:26:00,
2013-02-07 12:41:00,37.0,27.0,30.40,ESE,110,0.0,-999.0,67,-99.99,,,0.00,weatherlink.com 1.10,2013-02-07 17:41:00,
2013-02-07 12:56:00,36.9,26.0,30.40,ESE,110,0.0,-999.0,64,-99.99,,,0.00,weatherlink.com 1.10,2013-02-07 17:56:00,
2013-02-07 13:11:00,37.6,26.0,30.40,ENE,57,0.0,-999.0,64,-99.99,,,0.00,weatherlink.com 1.10,2013-02-07 18:11:00,
2013-02-07 13:26:00,37.5,25.0,30.39,ESE,120,0.0,-999.0,62,-99.99,,,0.00,weatherlink.com 1.10,2013-02-07 18:26:00,
2013-02-07 13:41:00,37.9,26.0,30.38,SE,131,0.0,-999.0,62,-99.99,,,0.00,weatherlink.com 1.10,2013-02-07 18:41:00,
2013-02-07 13:56:00,37.9,25.0,30.37,SE,134,0.0,-999.0,61,-99.99,,,0.00,weatherlink.com 1.10,2013-02-07 18:56:00,
2013-02-07 14:11:00,38.3,26.0,30.36,SE,136,0.0,-999.0,62,-99.99,,,0.00,weatherlink.com 1.10,2013-02-07 19:11:00,
2013-02-07 14:26:00,38.3,26.0,30.36,NE,41,0.0,-999.0,61,-99.99,,,0.00,weatherlink.com 1.10,2013-02-07 19:26:00,
2013-02-07 14:41:00,38.2,25.0,30.35,NE,56,0.0,-999.0,59,-99.99,,,0.00,weatherlink.com 1.10,2013-02-07 19:41:00,
2013-02-07 14:56:00,38.8,26.0,30.34,NE,44,0.0,-999.0,60,-99.99,,,0.00,weatherlink.com 1.10,2013-02-07 19:56:00,
2013-02-07 15:11:00,38.6,26.0,30.34,SE,144,0.0,-999.0,60,-99.99,,,0.00,weatherlink.com 1.10,2013-02-07 20:11:00,
2013-02-07 15:26:00,38.8,25.0,30.33,NE,50,0.0,-999.0,59,-99.99,,,0.00,weatherlink.com 1.10,2013-02-07 20:26:00,
2013-02-07 15:41:00,38.8,25.0,30.33,SSE,149,0.0,-999.0,58,-99.99,,,0.00,weatherlink.com 1.10,2013-02-07 20:41:00,
2013-02-07 15:56:00,38.8,25.0,30.32,ENE,57,2.0,-999.0,59,-99.99,,,0.00,weatherlink.com 1.10,2013-02-07 20:56:00,
2013-02-07 16:11:00,38.6,25.0,30.32,East,88,0.0,-999.0,59,-99.99,,,0.00,weatherlink.com 1.10,2013-02-07 21:11:00,
2013-02-07 16:26:00,38.5,25.0,30.32,East,89,0.0,-999.0,59,-99.99,,,0.00,weatherlink.com 1.10,2013-02-07 21:26:00,
2013-02-07 16:41:00,38.2,26.0,30.32,East,89,0.0,-999.0,61,-99.99,,,0.00,weatherlink.com 1.10,2013-02-07 21:41:00,
2013-02-07 16:56:00,38.0,26.0,30.32,SE,142,0.0,-999.0,62,-99.99,,,0.00,weatherlink.com 1.10,2013-02-07 21:56:00,
2013-02-07 17:11:00,37.5,26.0,30.31,SE,142,0.0,-999.0,64,-99.99,,,0.00,weatherlink.com 1.10,2013-02-07 22:11:00,
2013-02-07 17:26:00,37.0,26.0,30.32,SE,142,0.0,-999.0,65,-99.99,,,0.00,weatherlink.com 1.10,2013-02-07 22:26:00,
2013-02-07 17:41:00,36.5,27.0,30.32,SE,142,0.0,-999.0,68,-99.99,,,0.00,weatherlink.com 1.10,2013-02-07 22:41:00,
2013-02-07 17:56:00,36.5,28.0,30.33,SE,142,0.0,-999.0,70,-99.99,,,0.00,weatherlink.com 1.10,2013-02-07 22:56:00,
2013-02-07 18:11:00,36.2,28.0,30.33,SE,142,0.0,-999.0,71,-99.99,,,0.00,weatherlink.com 1.10,2013-02-07 23:11:00,
2013-02-07 18:26:00,35.9,28.0,30.34,SE,142,0.0,-999.0,73,-99.99,,,0.00,weatherlink.com 1.10,2013-02-07 23:26:00,
2013-02-07 18:41:00,36.0,29.0,30.34,SE,142,0.0,-999.0,75,-99.99,,,0.00,weatherlink.com 1.10,2013-02-07 23:41:00,
2013-02-07 18:56:00,36.2,30.0,30.33,SE,142,0.0,-999.0,77,-99.99,,,0.00,weatherlink.com 1.10,2013-02-07 23:56:00,
2013-02-07 19:11:00,36.2,30.0,30.33,SE,142,0.0,-999.0,78,-99.99,,,0.00,weatherlink.com 1.10,2013-02-08 00:11:00,
2013-02-07 19:26:00,36.0,30.0,30.33,SE,142,0.0,-999.0,79,-99.99,,,0.00,weatherlink.com 1.10,2013-02-08 00:26:00,
2013-02-07 19:41:00,36.2,30.0,30.33,SE,142,0.0,-999.0,79,-99.99,,,0.00,weatherlink.com 1.10,2013-02-08 00:41:00,
2013-02-07 19:56:00,36.2,31.0,30.32,SE,142,0.0,-999.0,80,-99.99,,,0.00,weatherlink.com 1.10,2013-02-08 00:56:00,
2013-02-07 20:26:00,36.3,30.0,30.31,ENE,60,0.0,-999.0,79,-99.99,,,0.00,weatherlink.com 1.10,2013-02-08 01:26:00,
2013-02-07 20:42:00,36.3,30.0,30.30,NE,53,0.0,-999.0,78,-99.99,,,0.00,weatherlink.com 1.10,2013-02-08 01:42:00,
2013-02-07 20:57:00,36.3,30.0,30.30,NNE,32,0.0,-999.0,79,-99.99,,,0.00,weatherlink.com 1.10,2013-02-08 01:57:00,
2013-02-07 21:12:00,36.3,30.0,30.29,ENE,67,0.0,-999.0,79,-99.99,,,0.00,weatherlink.com 1.10,2013-02-08 02:12:00,
2013-02-07 21:27:00,36.2,30.0,30.29,NE,41,1.0,-999.0,79,-99.99,,,0.00,weatherlink.com 1.10,2013-02-08 02:27:00,
2013-02-07 21:42:00,36.0,30.0,30.29,ENE,60,3.0,-999.0,78,-99.99,,,0.00,weatherlink.com 1.10,2013-02-08 02:42:00,
2013-02-07 21:57:00,35.8,30.0,30.28,NE,51,1.0,-999.0,78,-99.99,,,0.00,weatherlink.com 1.10,2013-02-08 02:57:00,
2013-02-07 22:12:00,35.3,29.0,30.27,ESE,102,0.0,-999.0,78,-99.99,,,0.00,weatherlink.com 1.10,2013-02-08 03:12:00,
2013-02-07 22:27:00,35.0,28.0,30.27,ENE,76,6.0,-999.0,77,-99.99,,,0.00,weatherlink.com 1.10,2013-02-08 03:27:00,
2013-02-07 22:44:00,34.7,28.0,30.25,ENE,77,5.0,-999.0,77,-99.99,,,0.00,weatherlink.com 1.10,2013-02-08 03:44:00,
2013-02-07 22:57:00,34.6,28.0,30.24,NE,47,3.0,-999.0,76,-99.99,,,0.00,weatherlink.com 1.10,2013-02-08 03:57:00,
2013-02-07 23:12:00,34.3,27.0,30.23,NNE,32,0.0,-999.0,75,-99.99,,,0.00,weatherlink.com 1.10,2013-02-08 04:12:00,
2013-02-07 23:27:00,34.3,27.0,30.23,NE,43,3.0,-999.0,75,-99.99,,,0.00,weatherlink.com 1.10,2013-02-08 04:27:00,
2013-02-07 23:42:00,34.3,27.0,30.21,North,359,1.0,-999.0,74,-99.99,,,0.00,weatherlink.com 1.10,2013-02-08 04:42:00,
2013-02-07 23:57:00,34.3,27.0,30.21,ENE,65,1.0,-999.0,74,-99.99,,,0.00,weatherlink.com 1.10,2013-02-08 04:57:00,